period_start,C,m1,H,J0,J1,J2,J3,J4,J5,JA,JB,JC,JD,JJ,JK,JN,#
2013-08-01 00:00:00,0.00,0.03,0.00,24.20,28.00,29.20,5.97,31.75,1024.92,2049.99,3498.98,3346.07,3645.15,350.06,325.20,8.72,0000 0000 0000 0000 000000
2013-08-01 00:01:00,0.01,0.03,0.00,24.19,28.00,29.19,6.00,31.71,1024.92,2049.99,3498.97,3346.05,3645.24,349.57,324.97,8.72,0000 0000 0000 0000 000000
2013-08-01 00:02:01,-0.01,0.03,0.00,24.22,28.00,29.24,6.11,31.67,1024.92,2049.99,3498.98,3346.06,3645.27,350.51,325.74,8.73,0000 0000 0000 0000 000000
2013-08-01 00:03:01,-0.00,0.03,0.00,24.17,28.00,29.25,5.83,31.54,1024.92,2049.99,3498.98,3346.10,3645.36,349.33,324.71,8.74,0000 0000 0000 0000 000000
2013-08-01 00:04:01,-0.01,0.03,0.00,24.19,28.00,29.23,6.08,31.50,1024.92,2049.99,3498.99,3346.13,3645.55,350.74,325.99,8.74,0000 0000 0000 0000 000000
2013-08-01 00:05:01,-0.03,0.02,0.00,24.22,28.00,29.26,6.06,31.63,1024.92,2049.99,3498.99,3346.18,3645.66,350.49,325.73,8.75,0000 0000 0000 0000 000000
2013-08-01 00:06:02,-0.01,0.02,0.00,24.23,28.00,29.23,6.05,31.67,1024.92,2049.99,3498.98,3346.20,3645.62,350.21,325.46,8.75,0000 0000 0000 0000 000000
2013-08-01 00:07:02,0.01,0.02,0.00,24.25,28.00,29.25,6.09,31.58,1024.92,2049.99,3498.99,3346.15,3645.52,350.93,326.35,8.76,0000 0000 0000 0000 000000
2013-08-01 00:08:02,0.02,0.02,0.00,24.21,28.00,29.23,5.99,31.54,1024.92,2049.99,3498.99,3346.16,3645.61,350.36,325.62,8.76,0000 0000 0000 0000 000000
2013-08-01 00:09:02,-0.01,0.02,0.00,24.20,28.00,29.23,6.09,31.50,1024.92,2049.99,3498.99,3346.14,3645.56,350.46,325.42,8.77,0000 0000 0000 0000 000000
2013-08-01 00:10:03,0.00,0.02,0.00,24.27,27.99,29.21,5.96,31.67,1024.92,2049.99,3498.98,3346.14,3645.53,349.55,324.81,8.78,0000 0000 0000 0000 000000
2013-08-01 00:11:03,0.00,0.02,0.00,24.28,27.99,29.21,5.94,31.71,1024.92,2049.99,3498.99,3346.16,3645.57,349.88,325.07,8.78,0000 0000 0000 0000 000000
2013-08-01 00:12:03,-0.01,0.02,0.00,24.22,27.98,29.25,5.93,31.58,1024.92,2049.99,3498.98,3346.21,3645.77,349.69,324.73,8.79,0000 0000 0000 0000 000000
2013-08-01 00:13:03,-0.03,0.02,0.00,24.18,27.97,29.23,5.88,31.63,1024.92,2049.99,3498.99,3346.35,3645.81,349.98,325.18,8.79,0000 0000 0000 0000 000000
2013-08-01 00:14:03,-0.03,0.02,0.00,24.17,27.97,29.25,5.90,31.71,1024.92,2049.99,3498.99,3346.46,3645.86,349.60,324.93,8.80,0000 0000 0000 0000 000000
2013-08-01 00:15:03,-0.02,0.02,0.00,24.16,27.97,29.28,5.98,31.63,1024.92,2049.99,3498.99,3346.44,3645.88,349.98,325.73,8.81,0000 0000 0000 0000 000000
2013-08-01 00:16:04,0.00,0.02,0.00,24.14,27.97,29.21,6.01,31.71,1024.92,2049.99,3498.99,3346.42,3645.84,349.81,325.18,8.81,0000 0000 0000 0000 000000
2013-08-01 00:17:04,0.00,0.02,0.00,24.17,27.97,29.22,6.06,31.67,1024.92,2049.99,3498.99,3346.55,3645.85,350.35,325.93,8.82,0000 0000 0000 0000 000000
2013-08-01 00:18:04,-0.03,0.02,0.00,24.14,27.97,29.19,6.14,31.71,1024.92,2049.99,3498.99,3346.59,3645.84,350.29,325.36,8.82,0000 0000 0000 0000 000000
2013-08-01 00:19:04,0.00,0.02,0.00,24.11,27.97,29.18,5.96,31.58,1024.92,2049.99,3498.99,3346.59,3645.86,349.84,325.52,8.83,0000 0000 0000 0000 000000
2013-08-01 00:20:04,-0.00,0.02,0.00,24.14,27.97,29.18,6.03,31.58,1024.92,2049.99,3498.99,3346.67,3645.89,350.06,325.46,8.84,0000 0000 0000 0000 000000
2013-08-01 00:21:05,-0.02,0.02,0.00,24.16,27.97,29.18,5.99,31.46,1024.92,2049.99,3498.99,3346.76,3645.92,350.40,325.36,8.84,0000 0000 0000 0000 000000
2013-08-01 00:22:05,-0.02,0.02,0.00,24.16,27.97,29.18,6.02,31.79,1024.92,2049.99,3498.99,3346.85,3645.94,349.06,324.47,8.85,0000 0000 0000 0000 000000
2013-08-01 00:23:05,-0.01,0.02,0.00,24.19,27.97,29.17,5.99,31.79,1024.92,2050.00,3498.99,3346.88,3645.97,350.67,325.92,8.85,0000 0000 0000 0000 000000
2013-08-01 00:24:05,0.00,0.02,0.00,24.22,27.97,29.20,5.85,31.58,1024.92,2050.01,3498.99,3346.93,3645.99,349.28,324.66,8.86,0000 0000 0000 0000 000000
2013-08-01 00:25:06,-0.00,0.02,0.00,24.22,27.96,29.20,5.98,31.75,1024.92,2050.00,3498.99,3346.94,3645.98,349.42,324.73,8.86,0000 0000 0000 0000 000000
2013-08-01 00:26:06,-0.00,0.02,0.00,24.22,27.95,29.15,6.00,31.63,1024.92,2050.01,3498.99,3346.90,3645.96,350.49,325.73,8.87,0000 0000 0000 0000 000000
2013-08-01 00:27:06,0.01,0.02,0.00,24.25,27.95,29.18,6.06,31.54,1024.92,2050.00,3498.99,3346.86,3645.95,350.00,325.24,8.88,0000 0000 0000 0000 000000
2013-08-01 00:28:06,0.00,0.02,0.00,24.20,27.95,29.18,6.08,31.67,1024.92,2050.01,3498.99,3346.89,3645.94,351.30,326.66,8.88,0000 0000 0000 0000 000000
2013-08-01 00:29:07,0.00,0.02,0.00,24.18,27.95,29.19,6.07,31.63,1024.92,2050.00,3498.99,3346.84,3645.93,350.34,325.96,8.89,0000 0000 0000 0000 000000
2013-08-01 00:30:07,0.00,0.02,0.00,24.22,27.95,29.27,5.98,31.46,1024.92,2050.00,3498.99,3346.88,3645.95,349.95,325.23,8.89,0000 0000 0000 0000 000000
2013-08-01 00:31:08,-0.01,0.02,0.00,24.16,27.95,29.22,5.95,31.63,1024.92,2050.00,3498.99,3346.95,3645.96,350.14,325.46,8.90,0000 0000 0000 0000 000000
2013-08-01 00:32:08,-0.01,0.02,0.00,24.13,27.95,29.21,5.98,31.71,1024.92,2050.01,3498.99,3346.95,3645.94,349.64,325.04,8.91,0000 0000 0000 0000 000000
2013-08-01 00:33:08,0.00,0.02,0.00,24.10,27.95,29.23,5.98,31.58,1024.92,2050.00,3498.99,3346.95,3645.97,350.66,326.02,8.91,0000 0000 0000 0000 000000
2013-08-01 00:34:08,0.00,0.02,0.00,24.13,27.95,29.15,5.91,31.54,1024.92,2050.02,3498.99,3346.95,3645.99,350.26,325.62,8.92,0000 0000 0000 0000 000000
2013-08-01 00:35:08,0.01,0.02,0.00,24.19,27.95,29.11,6.01,31.71,1024.92,2050.03,3498.99,3346.98,3645.96,350.20,325.53,8.92,0000 0000 0000 0000 000000
2013-08-01 00:36:09,0.02,0.02,0.00,24.20,27.95,29.19,6.11,31.75,1024.92,2050.04,3499.00,3346.99,3645.98,349.73,325.00,8.93,0000 0000 0000 0000 000000
2013-08-01 00:37:09,-0.01,0.02,0.00,24.18,27.95,29.18,6.04,31.67,1024.92,2050.04,3499.00,3346.98,3645.99,350.19,325.93,8.93,0000 0000 0000 0000 000000
2013-08-01 00:38:09,-0.01,0.02,0.00,24.20,27.95,29.22,6.09,31.58,1024.92,2050.01,3499.00,3346.98,3645.99,350.52,325.67,8.94,0000 0000 0000 0000 000000
2013-08-01 00:39:09,-0.01,0.02,0.00,24.21,27.94,29.28,5.94,31.71,1024.92,2050.02,3499.00,3346.97,3645.97,350.21,325.47,8.95,0000 0000 0000 0000 000000
2013-08-01 00:40:10,0.01,0.02,0.00,24.26,27.93,29.24,5.97,31.46,1024.92,2050.04,3499.00,3346.96,3645.98,349.48,324.75,8.95,0000 0000 0000 0000 000000
2013-08-01 00:41:10,0.02,0.02,0.00,24.25,27.93,29.19,6.02,31.50,1024.92,2050.05,3499.00,3346.93,3645.97,349.35,324.64,8.96,0000 0000 0000 0000 000000
2013-08-01 00:42:10,0.00,0.02,0.00,24.21,27.93,29.18,6.06,31.75,1024.92,2050.03,3499.01,3346.94,3645.97,350.40,325.65,8.96,0000 0000 0000 0000 000000
2013-08-01 00:43:10,-0.02,0.02,0.00,24.21,27.92,29.19,6.13,31.79,1024.92,2050.02,3499.00,3346.94,3645.97,350.59,325.72,8.97,0000 0000 0000 0000 000000
2013-08-01 00:44:10,-0.00,0.02,0.00,24.20,27.92,29.23,6.07,31.83,1024.92,2050.06,3499.00,3346.96,3645.97,350.58,325.85,8.98,0000 0000 0000 0000 000000
2013-08-01 00:45:11,0.01,0.02,0.00,24.22,27.92,29.24,5.93,31.67,1024.92,2050.07,3499.00,3346.97,3645.98,349.65,324.95,8.98,0000 0000 0000 0000 000000
2013-08-01 00:46:11,0.01,0.02,0.00,24.25,27.92,29.23,6.04,31.58,1024.92,2050.09,3499.01,3346.98,3645.99,350.07,325.30,8.99,0000 0000 0000 0000 000000
2013-08-01 00:47:11,0.02,0.02,0.00,24.25,27.92,29.23,5.98,31.71,1024.92,2050.09,3499.00,3346.98,3645.99,349.64,324.90,8.99,0000 0000 0000 0000 000000
2013-08-01 00:48:11,-0.01,0.02,0.00,24.24,27.92,29.23,6.05,31.71,1024.92,2050.04,3499.00,3346.99,3645.98,350.05,325.20,9.00,0000 0000 0000 0000 000000
2013-08-01 00:49:11,-0.02,0.02,0.00,24.25,27.92,29.26,6.03,31.58,1024.92,2050.04,3499.01,3346.98,3645.99,350.58,325.32,9.00,0000 0000 0000 0000 000000
2013-08-01 00:50:12,-0.00,0.02,0.00,24.27,27.92,29.29,6.04,31.75,1024.92,2050.05,3499.00,3346.99,3645.99,350.50,325.67,9.01,0000 0000 0000 0000 000000
2013-08-01 00:51:12,0.02,0.02,0.00,24.27,27.92,29.25,5.96,31.50,1024.92,2050.11,3499.01,3346.99,3645.99,349.98,325.19,9.02,0000 0000 0000 0000 000000
2013-08-01 00:52:12,0.03,0.02,0.00,24.23,27.92,29.25,5.92,31.50,1024.92,2050.08,3499.01,3346.98,3645.99,349.79,325.07,9.02,0000 0000 0000 0000 000000
2013-08-01 00:53:12,-0.01,0.02,0.00,24.21,27.92,29.25,5.89,31.50,1024.92,2050.10,3499.00,3346.99,3645.99,349.37,324.86,9.03,0000 0000 0000 0000 000000
2013-08-01 00:54:13,-0.00,0.02,0.00,24.21,27.92,29.29,6.04,31.54,1024.92,2050.10,3499.00,3346.99,3645.99,349.89,325.53,9.03,0000 0000 0000 0000 000000
2013-08-01 00:55:13,-0.01,0.02,0.00,24.23,27.92,29.28,6.00,31.67,1024.92,2050.08,3499.00,3346.99,3645.99,349.38,325.00,9.04,0000 0000 0000 0000 000000
2013-08-01 00:56:13,-0.01,0.02,0.00,24.19,27.92,29.24,6.09,31.75,1024.92,2050.06,3499.00,3346.99,3645.99,349.89,325.20,9.05,0000 0000 0000 0000 000000
2013-08-01 00:57:13,0.01,0.02,0.00,24.18,27.91,29.26,6.12,31.50,1024.92,2050.14,3499.01,3346.99,3645.99,350.65,325.86,9.05,0000 0000 0000 0000 000000
2013-08-01 00:58:14,0.05,0.02,0.00,24.22,27.91,29.22,6.02,31.50,1024.92,2050.13,3499.00,3346.99,3645.99,349.38,324.56,9.06,0000 0000 0000 0000 000000
2013-08-01 00:59:14,0.00,0.02,0.00,24.23,27.90,29.25,6.07,31.46,1024.92,2050.18,3499.00,3346.99,3645.99,349.86,325.13,9.06,0000 0000 0000 0000 000000
2013-08-01 01:00:14,0.01,0.02,0.00,24.23,27.90,29.24,6.05,31.46,1024.92,2050.17,3499.00,3346.99,3645.99,350.72,325.93,9.07,0000 0000 0000 0000 000000
2013-08-01 01:01:14,-0.01,0.02,0.00,24.24,27.90,29.21,6.01,31.71,1024.92,2050.11,3499.00,3346.99,3645.99,349.70,324.97,9.08,0000 0000 0000 0000 000000
2013-08-01 01:02:15,-0.03,0.02,0.00,24.23,27.90,29.19,6.05,31.71,1024.92,2050.11,3499.00,3346.99,3645.99,349.86,325.29,9.08,0000 0000 0000 0000 000000
2013-08-01 01:03:15,-0.01,0.02,0.00,24.15,27.90,29.17,5.99,31.63,1024.92,2050.07,3499.00,3346.99,3645.98,350.62,325.75,9.09,0000 0000 0000 0000 000000
2013-08-01 01:04:15,-0.00,0.02,0.00,24.15,27.90,29.18,5.82,31.67,1024.92,2050.09,3499.00,3346.99,3645.99,349.55,324.49,9.09,0000 0000 0000 0000 000000
2013-08-01 01:05:15,-0.01,0.02,0.00,24.22,27.90,29.21,6.01,31.67,1024.93,2050.07,3499.00,3346.99,3645.98,349.93,325.19,9.10,0000 0000 0000 0000 000000
2013-08-01 01:06:16,-0.02,0.02,0.00,24.22,27.90,29.23,6.06,31.63,1024.94,2050.05,3499.01,3346.99,3645.98,350.35,325.60,9.10,0000 0000 0000 0000 000000
2013-08-01 01:07:16,-0.01,0.02,0.00,24.18,27.90,29.26,5.86,31.54,1024.94,2050.04,3499.00,3346.99,3645.98,349.63,324.98,9.11,0000 0000 0000 0000 000000
2013-08-01 01:08:16,-0.01,0.02,0.00,24.17,27.90,29.26,6.10,31.71,1024.95,2050.04,3499.00,3346.99,3645.99,349.77,325.12,9.12,0000 0000 0000 0000 000000
2013-08-01 01:09:17,0.01,0.02,0.00,24.20,27.90,29.24,6.02,31.71,1024.92,2050.08,3499.00,3346.99,3645.98,350.33,325.73,9.12,0000 0000 0000 0000 000000
2013-08-01 01:10:17,0.04,0.02,0.00,24.23,27.90,29.24,5.93,31.42,1024.94,2050.11,3499.00,3346.97,3645.99,349.64,324.87,9.13,0000 0000 0000 0000 000000
2013-08-01 01:11:17,0.02,0.02,0.00,24.23,27.90,29.20,5.96,31.58,1024.95,2050.12,3499.00,3346.98,3645.99,349.72,325.02,9.13,0000 0000 0000 0000 000000
2013-08-01 01:12:17,0.00,0.02,0.00,24.25,27.90,29.23,6.04,31.71,1024.93,2050.15,3499.01,3346.99,3645.99,349.71,324.97,9.14,0000 0000 0000 0000 000000
2013-08-01 01:13:18,0.02,0.02,0.00,24.23,27.90,29.22,6.02,31.46,1024.92,2050.17,3499.01,3346.98,3645.99,350.73,325.94,9.15,0000 0000 0000 0000 000000
2013-08-01 01:14:18,0.01,0.02,0.00,24.21,27.90,29.16,6.00,31.71,1024.93,2050.14,3499.00,3346.98,3645.98,350.40,325.66,9.15,0000 0000 0000 0000 000000
2013-08-01 01:15:18,-0.01,0.02,0.00,24.30,27.90,29.17,6.03,31.58,1024.93,2050.12,3499.00,3346.99,3645.99,350.23,325.41,9.16,0000 0000 0000 0000 000000
2013-08-01 01:16:19,-0.01,0.02,0.00,24.28,27.90,29.19,6.01,31.79,1024.92,2050.08,3499.00,3346.98,3645.99,349.95,324.90,9.16,0000 0000 0000 0000 000000
2013-08-01 01:17:19,-0.00,0.02,0.00,24.26,27.89,29.19,5.98,31.58,1024.92,2050.17,3499.00,3346.99,3645.98,349.78,324.57,9.17,0000 0000 0000 0000 000000
2013-08-01 01:18:19,0.05,0.02,0.00,24.25,27.89,29.22,6.02,31.58,1024.92,2050.22,3499.00,3346.99,3645.99,350.63,325.51,9.17,0000 0000 0000 0000 000000
2013-08-01 01:19:19,0.04,0.02,0.00,24.26,27.89,29.21,6.03,31.67,1024.93,2050.22,3499.00,3346.99,3645.99,349.83,325.24,9.18,0000 0000 0000 0000 000000
2013-08-01 01:20:20,-0.01,0.02,0.00,24.26,27.88,29.23,5.90,31.58,1024.93,2050.22,3499.00,3346.99,3645.99,350.29,325.47,9.19,0000 0000 0000 0000 000000
2013-08-01 01:21:20,0.01,0.02,0.00,24.25,27.88,29.19,5.93,31.67,1024.94,2050.18,3499.00,3346.99,3645.99,349.62,324.89,9.19,0000 0000 0000 0000 000000
2013-08-01 01:22:20,-0.03,0.02,0.00,24.20,27.88,29.22,6.05,31.79,1024.95,2050.15,3498.99,3346.99,3645.99,350.81,325.59,9.20,0000 0000 0000 0000 000000
2013-08-01 01:23:20,-0.01,0.02,0.00,24.14,27.87,29.19,5.98,31.83,1024.95,2050.24,3498.99,3346.99,3645.98,350.52,325.85,9.20,0000 0000 0000 0000 000000
2013-08-01 01:24:21,0.04,0.02,0.00,24.17,27.87,29.22,6.13,31.75,1024.93,2050.21,3498.99,3346.99,3645.99,349.42,324.86,9.21,0000 0000 0000 0000 000000
2013-08-01 01:25:21,-0.01,0.02,0.00,24.19,27.87,29.28,5.97,31.63,1024.94,2050.24,3498.99,3346.99,3645.97,349.82,325.15,9.22,0000 0000 0000 0000 000000
2013-08-01 01:26:21,0.07,0.02,0.00,24.19,27.87,29.33,5.97,31.58,1024.93,2050.42,3498.99,3346.98,3645.99,350.04,325.44,9.22,0000 0000 0000 0000 000000
2013-08-01 01:27:21,0.06,0.03,0.00,24.23,27.87,29.26,5.97,31.67,1024.95,2050.32,3498.99,3346.99,3645.99,350.09,325.36,9.23,0000 0000 0000 0000 000000
2013-08-01 01:28:22,-0.02,0.03,0.00,24.26,27.87,29.27,6.02,31.54,1024.94,2050.41,3498.99,3346.99,3645.99,349.71,324.23,9.23,0000 0000 0000 0000 000000
2013-08-01 01:29:22,0.07,0.03,0.00,24.22,27.87,29.27,6.08,31.58,1024.96,2050.49,3498.99,3346.99,3645.99,350.61,325.85,9.24,0000 0000 0000 0000 000000
2013-08-01 01:30:22,0.03,0.03,0.00,24.27,27.87,29.23,5.93,31.63,1024.96,2050.39,3498.99,3346.99,3645.97,349.88,324.97,9.25,0000 0000 0000 0000 000000
2013-08-01 01:31:22,-0.06,0.03,0.00,24.29,27.87,29.30,6.08,31.63,1024.94,2050.44,3498.99,3346.99,3645.98,350.46,325.40,9.25,0000 0000 0000 0000 000000
2013-08-01 01:32:23,0.04,0.03,0.00,24.30,27.87,29.32,5.89,31.75,1024.97,2050.47,3498.99,3346.99,3645.99,349.28,324.86,9.26,0000 0000 0000 0000 000000
2013-08-01 01:33:23,0.04,0.03,0.00,24.29,27.87,29.26,5.88,31.71,1024.98,2050.48,3498.99,3346.99,3645.99,349.64,325.04,9.26,0000 0000 0000 0000 000000
2013-08-01 01:34:23,-0.00,0.03,0.00,24.33,27.87,29.25,5.84,31.67,1024.95,2050.50,3498.99,3346.98,3645.99,349.63,324.82,9.27,0000 0000 0000 0000 000000
2013-08-01 01:35:23,0.01,0.03,0.00,24.30,27.87,29.29,6.03,31.63,1024.98,2050.45,3498.99,3346.99,3645.99,350.21,325.39,9.27,0000 0000 0000 0000 000000
2013-08-01 01:36:24,-0.01,0.03,0.00,24.30,27.87,29.27,5.93,31.67,1025.00,2050.51,3498.99,3346.99,3645.99,349.52,324.96,9.28,0000 0000 0000 0000 000000
2013-08-01 01:37:24,0.01,0.03,0.00,24.31,27.87,29.21,5.95,31.58,1024.97,2050.47,3498.99,3346.99,3645.99,350.70,325.44,9.29,0000 0000 0000 0000 000000
2013-08-01 01:38:24,-0.03,0.03,0.00,24.27,27.87,29.17,5.88,31.63,1024.98,2050.46,3498.99,3346.99,3645.99,348.82,324.47,9.29,0000 0000 0000 0000 000000
2013-08-01 01:39:24,0.02,0.03,0.00,24.31,27.87,29.24,6.04,31.63,1024.96,2050.61,3498.99,3346.99,3645.99,350.98,326.10,9.30,0000 0000 0000 0000 000000
2013-08-01 01:40:25,0.08,0.03,0.00,24.33,27.87,29.25,5.88,31.63,1024.95,2050.67,3499.00,3346.99,3645.99,350.44,325.58,9.30,0000 0000 0000 0000 000000
2013-08-01 01:41:25,0.02,0.03,0.00,24.28,27.87,29.27,5.90,31.75,1024.96,2050.63,3499.00,3346.99,3645.99,349.51,324.44,9.31,0000 0000 0000 0000 000000
2013-08-01 01:42:25,0.00,0.03,0.00,24.33,27.87,29.24,5.98,31.92,1025.01,2050.65,3499.00,3346.99,3645.99,349.85,324.68,9.32,0000 0000 0000 0000 000000
2013-08-01 01:43:26,0.00,0.03,0.00,24.34,27.87,29.25,6.01,31.79,1025.01,2050.65,3499.00,3346.99,3645.99,350.44,325.58,9.32,0000 0000 0000 0000 000000
2013-08-01 01:44:26,0.00,0.03,0.00,24.31,27.87,29.28,5.95,31.96,1024.99,2050.67,3499.00,3346.99,3645.99,348.91,324.21,9.33,0000 0000 0000 0000 000000
2013-08-01 01:45:26,0.02,0.03,0.00,24.29,27.87,29.28,5.88,31.63,1025.01,2050.68,3499.00,3346.99,3645.99,349.68,324.88,9.33,0000 0000 0000 0000 000000
2013-08-01 01:46:26,-0.00,0.03,0.00,24.25,27.87,29.24,6.11,31.67,1025.03,2050.68,3499.00,3346.99,3645.99,350.22,325.48,9.34,0000 0000 0000 0000 000000
2013-08-01 01:47:27,0.00,0.03,0.00,24.27,27.87,29.25,5.93,31.63,1025.02,2050.62,3499.00,3346.99,3645.98,349.84,325.35,9.34,0000 0000 0000 0000 000000
2013-08-01 01:48:27,-0.05,0.03,0.00,24.24,27.87,29.20,5.83,31.58,1025.03,2050.57,3499.00,3346.99,3645.99,349.41,324.74,9.35,0000 0000 0000 0000 000000
2013-08-01 01:49:27,0.03,0.03,0.00,24.30,27.87,29.24,5.83,31.58,1025.03,2050.70,3499.00,3346.99,3645.99,349.53,324.79,9.36,0000 0000 0000 0000 000000
2013-08-01 01:50:28,0.05,0.03,0.00,24.32,27.87,29.25,6.18,31.79,1025.06,2050.68,3499.00,3346.99,3645.99,350.98,326.12,9.36,0000 0000 0000 0000 000000
2013-08-01 01:51:28,0.00,0.03,0.00,24.30,27.86,29.31,6.03,31.79,1025.02,2050.77,3499.00,3346.99,3645.99,350.05,325.27,9.37,0000 0000 0000 0000 000000
2013-08-01 01:52:28,0.06,0.03,0.00,24.29,27.86,29.28,6.07,31.63,1025.08,2050.86,3499.00,3346.99,3645.99,350.10,325.40,9.37,0000 0000 0000 0000 000000
2013-08-01 01:53:29,0.06,0.03,0.00,24.27,27.86,29.25,5.97,31.63,1025.07,2050.88,3499.00,3346.99,3645.99,349.49,325.08,9.38,0000 0000 0000 0000 000000
2013-08-01 01:54:29,0.03,0.03,0.00,24.34,27.86,29.26,5.99,31.63,1025.09,2050.78,3499.00,3346.99,3645.99,349.64,325.05,9.39,0000 0000 0000 0000 000000
2013-08-01 01:55:29,-0.08,0.03,0.00,24.33,27.85,29.28,6.03,31.67,1025.15,2050.76,3499.00,3346.99,3645.99,350.11,325.26,9.39,0000 0000 0000 0000 000000
2013-08-01 01:56:30,0.00,0.03,0.00,24.29,27.86,29.23,5.89,31.75,1025.11,2050.86,3498.99,3346.99,3645.99,349.79,325.06,9.40,0000 0000 0000 0000 000000
2013-08-01 01:57:30,0.07,0.03,0.00,24.29,27.86,29.21,5.74,31.67,1025.22,2050.93,3498.99,3346.99,3645.99,348.69,324.07,9.40,0000 0000 0000 0000 000000
2013-08-01 01:58:30,0.02,0.03,0.00,24.25,27.85,29.16,5.87,31.71,1025.31,2050.89,3498.99,3346.99,3645.99,350.11,325.28,9.41,0000 0000 0000 0000 000000
2013-08-01 01:59:31,-0.01,0.03,0.00,24.26,27.85,29.15,6.06,31.71,1025.33,2050.91,3498.99,3346.99,3645.99,349.95,325.31,9.42,0000 0000 0000 0000 000000
2013-08-01 02:00:31,0.02,0.03,0.00,24.28,27.85,29.20,6.11,31.63,1025.33,2050.94,3499.00,3346.99,3645.99,350.11,325.44,9.42,0000 0000 0000 0000 000000
2013-08-01 02:01:31,0.02,0.03,0.00,24.33,27.85,29.20,6.15,31.88,1025.29,2050.95,3499.01,3346.99,3645.99,350.87,326.07,9.43,0000 0000 0000 0000 000000
2013-08-01 02:02:31,0.00,0.03,0.00,24.36,27.85,29.16,5.84,31.54,1025.31,2050.96,3499.01,3346.99,3645.99,349.05,324.36,9.43,0000 0000 0000 0000 000000
2013-08-01 02:03:32,0.01,0.03,0.00,24.37,27.85,29.18,6.08,31.71,1025.34,2050.98,3499.00,3346.99,3645.99,350.00,325.24,9.44,0000 0000 0000 0000 000000
2013-08-01 02:04:32,0.01,0.03,0.00,24.29,27.85,29.20,6.10,31.67,1025.37,2050.99,3499.00,3346.99,3646.00,350.80,326.08,9.44,0000 0000 0000 0000 000000
2013-08-01 02:05:32,0.00,0.03,0.00,24.30,27.85,29.23,6.02,31.67,1025.30,2050.98,3499.00,3347.00,3646.00,350.27,325.56,9.45,0000 0000 0000 0000 000000
2013-08-01 02:06:32,-0.01,0.03,0.00,24.37,27.85,29.24,5.86,31.58,1025.32,2050.98,3499.01,3347.01,3646.00,349.35,324.63,9.46,0000 0000 0000 0000 000000
2013-08-01 02:07:32,-0.00,0.03,0.00,24.32,27.85,29.24,6.14,31.83,1025.30,2050.98,3499.00,3347.00,3646.00,351.17,325.92,9.46,0000 0000 0000 0000 000000
2013-08-01 02:08:33,0.00,0.03,0.00,24.25,27.85,29.26,6.17,31.75,1025.35,2050.97,3499.00,3347.00,3646.00,350.27,325.60,9.47,0000 0000 0000 0000 000000
2013-08-01 02:09:33,0.00,0.03,0.00,24.23,27.85,29.28,5.98,31.71,1025.36,2050.97,3499.00,3347.00,3646.00,349.79,325.20,9.47,0000 0000 0000 0000 000000
2013-08-01 02:10:33,0.00,0.03,0.00,24.23,27.85,29.26,6.10,31.88,1025.36,2050.97,3499.00,3347.00,3646.00,350.29,325.50,9.48,0000 0000 0000 0000 000000
2013-08-01 02:11:33,-0.02,0.03,0.00,24.30,27.85,29.29,6.02,31.71,1025.38,2050.91,3499.00,3347.00,3646.00,349.96,325.30,9.49,0000 0000 0000 0000 000000
2013-08-01 02:12:34,-0.01,0.03,0.00,24.34,27.85,29.37,6.12,31.67,1025.37,2050.94,3499.00,3347.00,3646.00,350.17,325.47,9.49,0000 0000 0000 0000 000000
2013-08-01 02:13:34,0.01,0.03,0.00,24.34,27.85,29.36,5.95,31.58,1025.37,2050.93,3499.00,3347.00,3646.00,349.50,324.82,9.50,0000 0000 0000 0000 000000
2013-08-01 02:14:34,-0.00,0.03,0.00,24.34,27.85,29.42,6.12,31.75,1025.37,2050.92,3499.00,3347.00,3646.00,350.70,325.91,9.50,0000 0000 0000 0000 000000
2013-08-01 02:15:34,0.00,0.03,0.00,24.36,27.85,29.36,6.13,31.88,1025.39,2050.93,3499.00,3347.00,3646.00,349.99,325.43,9.51,0000 0000 0000 0000 000000
2013-08-01 02:16:35,-0.00,0.03,0.00,24.34,27.85,29.28,6.10,31.79,1025.37,2050.92,3499.00,3347.00,3646.00,350.12,325.39,9.51,0000 0000 0000 0000 000000
2013-08-01 02:17:35,-0.02,0.03,0.00,24.32,27.85,29.25,5.96,31.75,1025.37,2050.90,3498.98,3347.00,3646.00,350.48,325.22,9.52,0000 0000 0000 0000 000000
2013-08-01 02:18:35,0.00,0.03,0.00,24.32,27.85,29.25,5.89,31.71,1025.38,2050.93,3498.99,3347.00,3646.00,349.68,324.82,9.53,0000 0000 0000 0000 000000
2013-08-01 02:19:35,0.02,0.03,0.00,24.34,27.85,29.26,5.97,31.71,1025.35,2050.94,3498.99,3347.00,3646.00,349.50,324.81,9.53,0000 0000 0000 0000 000000
2013-08-01 02:20:35,-0.01,0.03,0.00,24.35,27.85,29.29,6.16,31.83,1025.36,2050.91,3498.99,3347.00,3646.00,350.24,325.50,9.54,0000 0000 0000 0000 000000
2013-08-01 02:21:36,-0.01,0.03,0.00,24.35,27.85,29.30,6.15,31.79,1025.37,2050.94,3498.98,3347.00,3646.00,349.80,325.08,9.54,0000 0000 0000 0000 000000
2013-08-01 02:22:36,0.02,0.03,0.00,24.34,27.85,29.30,5.94,31.79,1025.38,2050.93,3498.99,3347.00,3646.00,349.80,325.10,9.55,0000 0000 0000 0000 000000
2013-08-01 02:23:36,-0.03,0.03,0.00,24.38,27.85,29.30,6.08,31.75,1025.39,2050.88,3498.99,3347.00,3646.00,350.51,325.73,9.56,0000 0000 0000 0000 000000
2013-08-01 02:24:36,-0.01,0.03,0.00,24.40,27.85,29.28,5.90,31.79,1025.38,2050.91,3498.99,3347.00,3646.00,349.78,325.28,9.56,0000 0000 0000 0000 000000
2013-08-01 02:25:36,0.04,0.03,0.00,24.40,27.85,29.30,5.98,31.63,1025.38,2050.95,3498.97,3347.00,3646.00,349.99,325.32,9.57,0000 0000 0000 0000 000000
2013-08-01 02:26:37,0.01,0.03,0.00,24.35,27.85,29.30,6.11,31.75,1025.39,2050.96,3498.97,3347.00,3645.99,350.45,325.23,9.57,0000 0000 0000 0000 000000
2013-08-01 02:27:37,0.02,0.03,0.00,24.34,27.85,29.30,5.69,31.58,1025.38,2050.95,3498.99,3347.00,3645.99,348.59,323.80,9.58,0000 0000 0000 0000 000000
2013-08-01 02:28:37,-0.01,0.03,0.00,24.34,27.85,29.32,5.92,31.67,1025.39,2050.95,3498.97,3346.99,3645.99,349.52,324.85,9.59,0000 0000 0000 0000 000000
2013-08-01 02:29:38,-0.00,0.03,0.00,24.32,27.85,29.31,5.83,31.67,1025.38,2050.94,3498.98,3346.99,3645.99,349.47,324.82,9.59,0000 0000 0000 0000 000000
2013-08-01 02:30:38,-0.03,0.03,0.00,24.33,27.85,29.29,6.05,31.88,1025.39,2050.92,3498.97,3346.99,3645.99,350.22,325.71,9.60,0000 0000 0000 0000 000000
2013-08-01 02:31:38,-0.01,0.03,0.00,24.32,27.85,29.25,5.89,31.71,1025.38,2050.82,3498.97,3346.99,3645.96,349.71,325.04,9.60,0000 0000 0000 0000 000000
2013-08-01 02:32:38,-0.06,0.03,0.00,24.34,27.85,29.27,5.84,31.67,1025.39,2050.86,3498.96,3346.99,3645.97,349.51,324.83,9.61,0000 0000 0000 0000 000000
2013-08-01 02:33:38,0.06,0.03,0.00,24.41,27.85,29.36,6.07,31.83,1025.37,2050.82,3498.97,3346.99,3645.97,350.32,325.51,9.61,0000 0000 0000 0000 000000
2013-08-01 02:34:38,-0.05,0.03,0.00,24.37,27.85,29.41,5.98,31.50,1025.39,2050.85,3498.97,3346.99,3645.98,349.52,324.81,9.62,0000 0000 0000 0000 000000
2013-08-01 02:35:39,0.02,0.03,0.00,24.38,27.85,29.39,5.96,31.63,1025.39,2050.81,3498.96,3346.98,3645.97,350.23,325.56,9.63,0000 0000 0000 0000 000000
2013-08-01 02:36:39,-0.06,0.03,0.00,24.38,27.85,29.34,5.78,31.67,1025.40,2050.65,3498.92,3346.99,3645.94,349.73,325.17,9.63,0000 0000 0000 0000 000000